Showing default

IRIDE-MS2-HEO-13, 68985

AKA "IRIDE-MS2-HEO-13" on Space-Track | Orbit data source: Space-Track

IRIDE-MS2-HEO-13, 68985 is an Italian payload satellite in SSO that was launched on Sun, 03 May 2026 UTC via an FALCON 9 launch vehicle from the Air Force Western Test Range (AFWTR). Payload-class satellites include a variety of spacecraft equipped with specific instruments for various scientific and technological missions. These include communications satellites like Starlink; space stations such as the ISS; scientific satellites like the Hubble; Earth observation satellites from companies like Planet Labs, Umbra, and HawkEye 360; GPS; miniature CubeSats for education and research; and military/defense satellites.

Loading next visibility...
Identifier
68985, 2026-100F
Orbit
SSO
Country
Flag of ITIT
Related business
Manufacturer
ArgoTec
Mission
Operational spacecraft
Bus & Motor
HAWK, Unknown motor
Mass
65 kg wet, 65 kg dry
Launch date (UTC)
2026-05-03 (1 month ago)
Launch vehicle
FALCON 9
Launch site
Air Force Western Test Range (AFWTR)
Object type
Payload
Rocket body
Debris
Shape & HBR
Unknown shape, 14.5 m
Radar Cross Section
Medium (>0.1 m² and <1 m²)

Expand to show TLE details & history
Last TLE update: 10 hours ago

TLE from 10 hours ago
0 IRIDE-MS2-HEO-13
1 68985U 26100F   26168.67853374  .00001183  00000-0  12295-3 0  9996
2 68985  97.7368  66.1279 0003486 107.5048 252.6552 14.91740707  6772
Epoch: 2026-06-17T16:17Z
TLE epoch observation values (Epoch: 2026-06-17T16:17:05.315Z)
Latitude
-0°
Longitude
-84.07701°
Altitude
596.275 km
Speed
7.561 km/s
True Right ascension
04h 24m 30s
True Declination
0° 00' 00"
Sunlit
Object was in daylight at epoch
Visualization orbit readout
Latitude
Unknown
Longitude
Unknown
Altitude
Unknown
Speed
Unknown
Apparent Right ascension
Unknown
Apparent Declination
Unknown
Sunlit
N/A
Visualization observer readout
Local Sidereal Time
12:50:16
Azimuth
Unknown
Elevation
Unknown
Doppler factor
Unknown
Orbital elements
Apogee altitude
591.955 km
Perigee altitude
587.097 km
Semi-major axis
6,967.663 km
Eccentricity
0.00035
Inclination
97.7368°
RAAN
66.1279°
Arg. of periapsis
107.5048°
True anomaly
252.61707°
Mean anomaly
252.6552°
Eccentric anomaly
252.63614°
Mean motion
3.73175 °/min
Orbital period
96.47 mins
BSTAR
0.00012295
Loading maneuver chart data...
Computing Atmospheric mass density...
Loading historical data...
Loading historical data...
Loading historical data...
Loading historical data...
Loading historical data...
Loading historical data...
Loading historical data...

Documentation

Showing up to 5 results
|